Epoch 2006 Mar. 6.0 TT = JDT 2453800.5
T 2006 Feb. 21.32535 TT MPC
q 2.1259869 (2000.0) P Q
n 0.13559389 Peri. 117.58760 +0.79918201 +0.57876029
a 3.7524015 Node 207.98603 -0.59631602 +0.79734587
e 0.4334330 Incl. 20.23604 +0.07559968 +0.17110259
P 7.27
From 321 observations 2005 Apr. 17-2012 May 28, mean residual 0".7.